Wind_Speed
5 5 5 5 4 5 6 6 6 5 5 5 6 6 7 6 7 7 7 6 6 5 5 4 5 6 6 6 5 5 4 4 4 3 3 3 3 3 2 2 2 2 3
5 5 5 5 5 5 6 6 5 5 5 5 6 5 6 7 7 7 7 7 7 5 4 4 5 7 7 6 5 5 5 5 5 4 4 3 3 2 3 2 2 2 1
6 5 4 4 5 5 6 6 6 5 5 5 6 6 7 8 7 7 6 6 6 5 4 4 5 6 6 6 6 5 5 4 4 4 4 3 3 2 2 3 2 2 2
7 5 4 4 5 5 6 6 6 5 5 6 6 7 7 7 7 7 6 6 5 5 5 5 5 6 6 6 6 5 5 4 5 4 4 3 3 3 3 3 2 2 2
6 5 4 4 5 5 6 5 5 6 6 6 7 7 7 6 6 6 6 5 5 5 4 5 5 6 6 5 5 5 5 5 5 5 5 4 4 4 4 4 3 3 3
6 6 5 5 5 5 5 5 5 6 6 7 7 7 7 6 5 5 5 5 5 5 4 4 4 5 6 6 5 5 6 6 6 6 6 6 6 6 6 5 5 5 5
7 6 6 5 5 5 5 5 5 5 6 7 7 7 7 6 5 5 5 5 4 4 4 4 4 4 5 5 5 6 6 7 6 7 7 7 7 7 7 6 6 5 5
8 7 7 6 6 7 7 7 6 6 7 7 6 7 6 5 5 5 4 4 4 4 4 4 4 4 4 5 6 6 7 7 7 7 7 7 7 8 8 7 7 6 6
9 8 7 8 8 8 7 7 6 7 7 7 7 6 5 4 3 4 4 3 4 4 4 4 5 5 6 6 6 7 7 7 8 8 8 8 8 8 8 8 8 7 7
9 8 8 8 7 7 6 6 5 5 6 5 5 4 4 3 2 3 3 3 3 4 4 4 5 6 6 7 7 7 8 8 8 9 9 9 9 9 9 9 9 9 9
8 8 8 7 7 6 5 5 4 4 3 3 3 3 3 2 2 2 2 3 4 4 5 6 6 6 7 7 8 8 8 8 9 9 9 9 10 9 9 10 11 11 10
9 8 7 7 7 6 5 4 4 3 2 2 2 2 1 1 1 1 1 2 3 4 5 5 6 6 7 7 8 9 9 9 10 11 10 10 10 10 11 11 11 11 11
9 8 8 7 7 6 5 5 4 3 3 2 1 1 1 1 1 1 1 2 3 4 4 5 6 6 7 7 8 8 9 9 10 10 11 11 11 11 11 11 12 12 12
8 8 7 7 6 6 5 5 4 4 3 3 1 0 1 1 2 3 2 3 4 4 4 5 5 6 7 8 8 9 10 10 11 11 11 11 11 11 11 12 12 12 12
8 8 7 6 5 5 5 5 5 4 3 2 1 0 1 2 3 4 3 4 4 5 6 6 6 7 8 8 8 9 10 10 10 11 11 11 10 11 11 12 12 12 11
8 8 7 6 5 5 5 5 5 4 4 3 2 1 1 2 3 4 3 3 3 5 6 7 7 8 9 9 8 9 9 9 9 10 11 10 10 11 11 12 12 12 11
7 7 7 6 5 4 5 5 5 4 4 4 3 2 2 3 4 4 3 3 4 4 6 7 8 9 9 9 8 8 8 9 9 9 9 10 11 11 12 13 13 12 11
6 6 6 5 4 4 4 4 4 4 4 4 4 4 4 4 4 4 4 4 4 5 6 7 7 8 8 8 8 8 8 9 8 9 9 10 11 12 12 12 12 12 11
5 4 4 4 4 3 3 3 3 3 3 4 4 5 6 6 6 5 5 5 6 6 6 6 6 7 7 7 7 8 8 8 8 8 9 10 10 11 11 12 12 12 11
3 4 3 3 2 2 2 3 3 3 4 4 5 6 6 6 6 7 7 7 6 6 7 6 6 6 6 6 6 6 7 8 8 8 8 9 10 11 12 12 12 13 12
3 3 3 3 2 2 3 3 3 4 5 5 5 6 6 6 7 7 8 7 7 7 8 7 6 6 5 5 6 7 7 8 9 9 9 9 10 10 11 12 12 13 13
3 3 3 2 2 3 3 4 4 5 5 5 5 6 7 7 7 8 8 9 9 8 8 8 7 6 6 7 7 8 9 9 10 9 9 9 10 10 11 12 13 13 14
4 4 4 3 4 4 4 5 5 6 6 6 6 7 7 7 8 8 9 10 9 9 9 9 9 8 8 8 8 9 9 9 10 9 9 9 10 10 10 10 12 13 13
5 5 5 4 5 6 6 6 7 7 7 7 8 8 8 9 9 10 10 10 10 10 10 10 10 10 9 9 9 10 10 10 10 11 11 11 11 11 11 12 12 13 14
7 7 7 6 6 7 7 7 8 8 8 9 9 10 10 10 10 11 11 11 11 11 11 11 11 10 10 10 10 10 10 11 11 12 13 13 12 12 13 13 14 14 15
8 9 8 8 8 8 9 9 10 10 10 11 11 11 12 12 12 12 12 13 12 12 12 11 11 10 10 10 10 10 10 11 12 13 13 13 14 14 14 15 15 15 16
Wind_Direction
91 98 103 113 127 139 148 149 148 144 143 153 151 150 149 141 137 139 142 146 150 153 162 172 186 187 182 170 169 171 164 159 165 159 163 174 179 183 190 199 194 180 159
97 103 110 117 129 137 144 152 157 152 145 149 155 148 146 143 139 141 143 147 151 153 159 175 180 180 182 179 177 175 175 181 182 181 187 182 186 202 207 209 197 187 175
93 94 109 120 131 139 144 154 157 155 152 151 156 153 148 145 144 146 145 151 157 156 150 156 158 169 174 179 182 183 185 187 193 198 201 199 206 213 223 221 202 184 182
78 79 96 118 128 136 143 152 158 158 156 155 151 148 148 150 153 157 158 162 167 168 162 159 160 172 175 180 185 192 194 195 199 204 205 203 204 215 214 214 208 204 210
73 81 97 121 130 137 146 151 160 167 165 162 156 154 152 153 154 158 165 169 170 170 174 172 168 176 179 187 194 201 206 206 212 213 213 218 217 221 216 208 206 207 216
67 71 93 110 123 135 142 154 159 166 159 152 152 153 154 155 157 159 162 165 165 166 164 165 173 185 195 200 207 213 214 218 222 221 226 230 230 230 224 218 219 222 223
60 65 85 106 118 126 127 130 137 144 151 148 149 150 153 157 160 160 165 168 172 174 177 181 186 194 203 210 217 221 217 223 229 231 230 232 233 231 226 226 227 225 225
60 68 81 97 108 115 114 112 115 126 136 142 145 149 151 152 154 160 168 173 182 186 189 196 207 214 220 222 224 228 229 237 237 235 236 233 231 230 232 230 228 228 232
62 68 86 98 106 112 109 108 110 118 127 133 139 140 146 151 155 164 177 187 188 195 204 214 223 230 236 238 238 236 236 238 241 244 237 234 232 233 235 238 236 237 238
63 69 82 96 105 109 106 108 115 125 133 136 136 136 139 141 155 168 175 186 192 209 219 227 233 240 243 241 239 240 238 243 243 245 241 237 236 238 240 241 241 240 241
61 69 79 89 98 100 102 105 110 120 141 145 143 135 127 124 131 150 164 196 215 228 236 243 245 249 246 245 244 243 242 244 244 245 246 243 241 242 243 243 244 242 244
65 69 74 78 87 92 95 96 99 102 125 135 148 136 121 111 102 117 172 212 229 245 249 251 248 250 249 247 246 247 248 245 247 249 249 246 246 248 246 246 246 245 245
64 68 70 75 81 86 89 89 90 90 101 106 117 111 90 4 331 320 248 239 247 254 253 254 255 254 254 254 255 258 254 247 248 249 246 246 248 249 246 247 248 246 245
60 66 71 75 78 82 83 84 86 85 80 83 76 109 39 344 327 309 282 266 264 263 264 266 263 258 259 259 264 265 259 251 250 252 250 248 248 249 247 246 246 243 243
60 65 67 67 72 80 75 76 81 76 70 67 56 57 357 333 324 314 295 289 269 276 276 275 272 267 263 264 266 266 260 255 252 255 252 248 248 250 249 247 246 246 246
58 63 62 64 76 76 73 73 72 68 62 52 44 44 350 326 325 320 313 296 285 290 291 284 277 271 267 270 265 266 264 258 256 257 251 247 245 249 248 246 246 248 246
53 59 59 58 61 67 68 66 61 58 54 45 33 28 359 339 330 324 315 294 295 300 299 288 278 271 267 265 263 262 269 265 249 253 252 248 247 249 245 242 243 247 246
45 49 53 54 60 64 56 50 50 50 43 33 25 18 7 352 338 330 325 305 303 303 299 292 280 269 263 264 263 264 269 265 256 253 253 252 249 246 242 239 238 241 244
32 40 44 49 56 54 43 36 27 27 17 12 15 6 359 356 345 328 323 316 314 308 307 301 287 272 262 259 264 265 265 264 270 262 257 253 250 247 244 239 239 238 240
18 24 28 35 39 35 28 25 21 11 354 350 357 354 349 347 343 333 319 318 314 313 315 307 288 275 263 257 264 272 272 270 274 273 265 261 256 252 246 242 241 240 240
352 358 4 9 11 8 8 4 360 355 352 346 340 343 344 342 338 332 329 322 309 308 310 304 296 276 274 275 276 277 276 274 272 272 273 270 261 253 246 245 243 243 242
330 327 331 335 339 341 340 340 342 340 338 333 331 335 337 336 337 335 331 327 322 318 306 304 308 299 290 284 278 280 278 271 268 271 272 273 267 257 252 247 243 241 239
319 315 317 325 322 319 320 325 329 331 331 327 326 327 329 329 330 329 325 323 321 321 316 315 311 306 296 286 280 281 280 271 270 274 272 273 271 266 260 255 247 242 241
305 301 303 306 313 315 318 320 321 322 325 324 322 319 318 319 320 319 321 325 322 315 310 306 303 296 295 292 286 280 277 276 276 273 270 269 267 265 260 256 252 247 244
298 296 295 297 305 309 315 320 319 321 320 317 318 319 320 322 322 319 320 321 320 315 310 305 302 296 294 292 287 282 278 276 277 275 272 267 262 261 260 255 251 248 245
297 292 290 291 299 303 310 312 309 313 314 316 316 317 317 316 316 316 315 314 314 313 310 306 304 300 296 292 286 283 281 278 276 273 272 267 262 259 259 255 252 250 248
Height
5877 5877 5877 5877 5877 5878 5878 5878 5879 5879 5879 5878 5880 5880 5881 5881 5882 5882 5883 5883 5883 5883 5883 5881 5880 5881 5883 5885 5886 5887 5888 5889 5889 5890 5891 5891 5892 5892 5893 5893 5893 5893 5894
5877 5877 5877 5877 5877 5878 5878 5879 5879 5879 5879 5879 5880 5880 5881 5881 5882 5882 5883 5883 5883 5883 5882 5880 5878 5879 5883 5885 5886 5887 5888 5889 5889 5890 5891 5891 5892 5892 5892 5893 5893 5894 5894
5878 5877 5877 5877 5877 5878 5878 5879 5879 5879 5879 5879 5880 5880 5881 5881 5882 5883 5883 5883 5883 5883 5882 5880 5879 5881 5883 5885 5886 5887 5888 5888 5889 5890 5890 5891 5891 5892 5892 5893 5893 5894 5894
5878 5878 5878 5877 5877 5878 5878 5879 5879 5879 5879 5880 5880 5881 5881 5882 5882 5883 5883 5883 5883 5883 5883 5882 5882 5883 5884 5885 5886 5887 5887 5888 5889 5889 5890 5890 5891 5892 5892 5893 5893 5894 5894
5879 5878 5878 5877 5877 5878 5878 5878 5879 5879 5879 5880 5880 5881 5881 5882 5882 5882 5883 5883 5883 5883 5883 5883 5883 5884 5885 5885 5886 5886 5887 5888 5889 5890 5890 5890 5891 5892 5892 5893 5893 5894 5894
5879 5878 5877 5877 5877 5878 5878 5878 5878 5878 5878 5879 5880 5881 5881 5882 5882 5883 5883 5883 5883 5883 5883 5883 5883 5884 5885 5885 5886 5886 5887 5887 5888 5889 5889 5890 5891 5891 5892 5892 5893 5893 5894
5879 5878 5876 5877 5877 5877 5878 5878 5878 5877 5877 5879 5880 5881 5881 5882 5882 5882 5883 5883 5883 5883 5883 5883 5884 5884 5884 5885 5885 5886 5886 5887 5887 5888 5889 5889 5890 5890 5891 5892 5892 5892 5893
5879 5878 5877 5877 5877 5878 5878 5878 5878 5877 5877 5879 5880 5881 5881 5882 5882 5882 5882 5882 5882 5882 5883 5883 5883 5883 5884 5884 5885 5885 5885 5886 5886 5887 5887 5888 5889 5889 5890 5891 5891 5892 5892
5881 5879 5877 5877 5878 5879 5879 5879 5879 5879 5879 5880 5880 5881 5881 5882 5882 5882 5882 5882 5882 5882 5882 5882 5882 5882 5883 5883 5884 5884 5884 5884 5885 5886 5886 5887 5888 5888 5889 5890 5890 5891 5891
5882 5881 5879 5879 5879 5880 5880 5880 5880 5880 5880 5881 5881 5881 5881 5881 5881 5881 5881 5881 5881 5881 5881 5881 5881 5881 5881 5882 5882 5882 5882 5883 5883 5884 5884 5885 5886 5887 5887 5888 5888 5889 5889
5884 5883 5882 5881 5881 5881 5881 5881 5881 5881 5881 5881 5881 5881 5881 5881 5881 5880 5880 5880 5880 5880 5880 5880 5880 5880 5880 5880 5880 5880 5880 5881 5881 5882 5882 5883 5884 5885 5885 5886 5886 5887 5887
5886 5885 5884 5883 5883 5882 5882 5882 5882 5882 5881 5881 5881 5881 5881 5880 5880 5880 5879 5879 5879 5879 5878 5878 5878 5878 5878 5877 5878 5878 5878 5879 5879 5879 5880 5881 5882 5882 5883 5883 5884 5885 5885
5887 5886 5886 5885 5884 5884 5883 5883 5882 5882 5882 5882 5882 5881 5881 5880 5879 5878 5878 5878 5878 5877 5877 5877 5876 5876 5876 5876 5876 5876 5876 5876 5877 5877 5878 5878 5879 5880 5880 5881 5882 5882 5883
5889 5888 5887 5886 5885 5885 5884 5884 5883 5883 5882 5882 5881 5881 5880 5879 5878 5877 5876 5876 5876 5876 5875 5875 5874 5874 5874 5874 5874 5874 5874 5874 5874 5874 5875 5875 5876 5877 5877 5878 5879 5880 5880
5890 5889 5888 5887 5887 5886 5886 5885 5884 5883 5883 5882 5881 5881 5880 5879 5877 5876 5875 5874 5874 5874 5873 5873 5872 5872 5871 5871 5871 5871 5871 5871 5871 5871 5872 5872 5873 5874 5874 5875 5876 5877 5877
5892 5890 5890 5889 5888 5887 5887 5886 5885 5884 5883 5883 5882 5881 5880 5879 5877 5875 5874 5873 5873 5872 5872 5871 5870 5869 5869 5868 5868 5869 5868 5868 5868 5868 5869 5869 5870 5871 5871 5872 5873 5874 5875
5893 5892 5891 5890 5889 5888 5888 5887 5886 5885 5884 5883 5882 5881 5880 5878 5877 5875 5874 5873 5872 5871 5870 5868 5867 5867 5866 5866 5866 5866 5866 5866 5866 5866 5866 5866 5867 5867 5868 5869 5870 5871 5872
5895 5893 5892 5891 5890 5889 5889 5888 5887 5885 5884 5883 5882 5881 5879 5878 5876 5875 5873 5872 5871 5870 5868 5866 5865 5864 5863 5864 5864 5864 5864 5863 5863 5864 5864 5864 5864 5864 5865 5866 5867 5868 5869
5896 5894 5893 5892 5891 5890 5889 5888 5887 5886 5885 5883 5882 5881 5879 5878 5876 5875 5873 5871 5870 5868 5867 5865 5863 5862 5862 5862 5862 5862 5861 5861 5862 5862 5862 5861 5861 5861 5862 5863 5864 5866 5867
5896 5895 5894 5893 5892 5891 5890 5889 5888 5886 5885 5884 5882 5881 5879 5878 5876 5874 5873 5871 5869 5867 5865 5863 5862 5860 5860 5860 5860 5860 5860 5859 5860 5860 5859 5859 5858 5858 5859 5860 5861 5863 5864
5896 5895 5894 5893 5892 5891 5890 5889 5888 5886 5885 5883 5882 5881 5879 5877 5876 5874 5872 5870 5868 5867 5865 5863 5861 5860 5859 5859 5859 5859 5858 5858 5858 5858 5857 5857 5856 5856 5856 5857 5858 5860 5861
5897 5895 5894 5893 5892 5891 5890 5889 5887 5886 5884 5883 5882 5880 5879 5877 5875 5873 5872 5869 5867 5865 5864 5862 5860 5859 5858 5858 5858 5857 5857 5857 5856 5856 5856 5855 5854 5854 5854 5855 5856 5858 5859
5896 5895 5894 5893 5892 5890 5889 5888 5887 5886 5884 5882 5881 5879 5878 5876 5874 5872 5870 5869 5866 5864 5863 5861 5860 5858 5857 5856 5856 5856 5855 5855 5854 5854 5853 5853 5853 5852 5853 5853 5854 5855 5856
5896 5894 5893 5892 5891 5890 5889 5887 5886 5884 5883 5881 5880 5878 5877 5875 5873 5871 5869 5867 5865 5863 5861 5860 5858 5857 5856 5855 5854 5853 5853 5852 5852 5852 5851 5850 5850 5850 5850 5851 5852 5853 5854
5894 5893 5892 5891 5890 5889 5888 5886 5885 5883 5882 5880 5878 5877 5875 5873 5872 5869 5867 5865 5864 5862 5860 5858 5856 5855 5854 5853 5852 5851 5851 5850 5850 5849 5849 5848 5848 5848 5848 5848 5849 5849 5850
5893 5892 5891 5890 5889 5888 5886 5885 5884 5882 5880 5879 5877 5875 5874 5872 5870 5868 5865 5863 5861 5859 5858 5856 5854 5853 5851 5850 5849 5849 5848 5848 5847 5846 5846 5845 5845 5845 5845 5845 5846 5846 5847